Wind_Speed
64 66 72 79 74 75 83 86 82 86 80 72 60 61 57 54 56 56 59 60 63 70 69 72 73 74 72 70 69 69 64 64 66 75 76 78 79 79 86 88 87 87 87 86 86
68 73 77 77 81 78 79 83 81 80 78 73 64 63 55 53 53 53 54 55 57 58 60 64 68 69 70 72 70 68 65 62 67 70 73 72 76 77 80 87 86 87 87 88 87
68 76 77 80 82 80 83 77 73 77 76 72 69 61 54 52 50 52 55 57 57 58 55 57 60 63 66 69 70 68 63 66 64 66 68 70 74 76 76 78 86 90 90 89 90
73 76 77 78 81 79 84 73 72 77 75 71 67 62 56 47 46 49 53 56 57 58 56 56 56 60 63 65 67 65 66 68 66 67 66 68 71 75 75 77 80 85 88 89 92
75 74 80 80 80 77 81 74 73 76 75 68 63 60 59 44 43 46 50 54 57 58 57 57 55 59 62 63 65 64 66 65 66 67 67 67 68 74 73 77 78 77 84 85 86
74 74 77 80 80 78 81 72 79 82 76 61 59 58 56 46 40 44 45 49 55 59 58 59 60 59 61 61 62 61 62 63 66 69 65 61 66 67 71 78 77 73 76 79 83
78 77 75 79 78 81 75 72 78 87 78 59 54 55 54 46 41 39 40 42 49 56 59 59 61 59 59 62 61 61 64 63 65 65 59 58 59 64 72 73 73 73 73 75 77
80 79 79 80 79 79 76 73 77 85 74 58 50 52 50 44 41 35 32 36 43 51 57 58 62 62 59 59 62 63 65 65 66 66 63 61 55 64 67 66 69 69 70 72 74
81 82 83 84 83 79 75 70 77 78 66 54 47 50 46 42 40 36 28 31 39 49 55 58 61 64 65 63 60 64 65 64 63 63 61 61 55 63 62 62 65 67 68 69 71
83 81 84 82 80 80 73 72 78 71 61 48 48 48 48 41 40 36 32 27 35 47 56 59 60 64 65 61 59 62 66 65 65 69 65 63 57 62 61 60 64 68 68 69 69
84 83 83 80 80 81 71 74 81 68 58 51 47 50 48 44 39 39 36 33 29 41 54 62 62 64 65 64 61 58 66 68 68 70 67 64 60 61 60 57 63 68 69 69 68
84 84 84 84 80 77 75 77 80 66 54 53 50 50 53 50 45 38 38 36 37 35 44 59 65 65 64 64 64 63 62 68 73 71 70 69 61 61 64 57 61 67 71 72 69
86 85 84 83 79 77 78 77 77 64 52 54 54 53 55 47 42 40 37 39 38 42 41 45 61 68 68 66 69 68 66 69 67 71 74 74 66 65 66 63 59 66 71 72 72
87 85 83 80 79 79 79 78 72 60 54 54 54 56 58 54 43 37 36 36 40 41 49 48 49 56 69 72 69 74 74 74 73 71 69 66 66 65 68 66 68 66 69 72 71
85 83 82 81 79 77 79 73 67 57 56 57 54 58 60 62 56 49 43 39 37 40 46 51 55 55 58 65 74 74 77 78 80 77 73 68 67 65 69 71 76 71 67 69 71
87 85 82 77 75 77 76 67 63 58 56 57 58 57 59 62 64 63 56 46 44 43 43 48 53 61 63 62 63 71 79 78 82 80 74 77 73 67 68 77 78 74 70 67 71
89 80 78 78 77 74 71 68 61 59 60 56 59 59 60 62 65 66 68 67 61 54 50 49 52 56 63 71 69 66 69 77 82 80 76 78 78 71 79 76 79 79 73 69 70
81 80 76 74 76 71 71 67 64 64 61 62 62 61 61 64 66 71 73 75 74 71 63 58 59 58 62 67 74 76 73 71 73 78 81 78 74 76 81 85 84 82 80 75 68
79 79 75 73 70 68 66 66 63 63 62 61 60 63 66 70 73 75 79 82 81 81 77 67 64 66 67 68 71 73 81 80 75 72 71 74 80 82 82 81 83 82 83 77 75
78 74 71 69 68 67 64 62 63 63 66 66 64 67 71 74 77 82 85 85 88 88 83 72 70 69 71 74 75 75 76 82 84 78 72 68 70 81 87 83 82 83 85 83 77
74 72 69 68 67 66 64 65 66 66 69 70 72 73 76 79 85 90 91 90 84 85 82 77 74 72 72 75 79 79 79 81 82 82 78 72 69 72 75 85 87 86 86 85 82
82 77 72 66 64 67 68 67 67 71 72 71 73 77 76 80 82 89 90 85 81 80 77 74 71 68 70 74 78 82 82 82 82 78 81 80 73 73 74 76 87 91 88 86 86
86 83 77 73 70 73 76 74 73 75 74 76 77 77 82 84 88 91 85 81 80 77 73 73 69 66 67 73 75 78 84 85 86 85 79 84 76 79 77 73 79 92 94 91 89
90 88 80 75 74 76 81 77 78 79 80 78 80 81 81 84 89 89 84 80 76 76 76 73 69 68 67 74 74 75 83 86 87 84 82 79 78 87 83 83 85 83 92 97 93
91 86 82 78 77 81 84 81 81 81 82 84 84 84 83 85 89 87 83 78 74 74 74 72 71 72 70 70 75 72 75 84 84 83 81 77 80 88 93 92 87 85 86 95 98
90 89 81 79 80 85 86 84 85 87 86 86 85 86 86 87 83 82 78 75 73 71 71 73 73 75 67 71 71 71 70 77 83 82 80 81 83 85 92 95 92 92 86 89 96
91 86 81 79 84 88 89 87 89 88 88 89 88 89 89 83 83 79 75 73 72 71 75 76 74 73 65 75 72 60 74 76 78 82 80 78 81 87 85 97 98 98 94 89 91
Wind_Direction
307 310 315 316 312 313 313 316 313 311 314 315 315 311 296 282 273 269 264 261 255 254 252 250 247 249 249 247 245 244 245 245 243 243 241 239 239 237 235 233 233 236 237 236 237
308 312 315 316 320 317 316 312 317 315 315 316 313 313 297 286 278 268 262 259 253 249 246 244 242 242 243 243 242 242 242 242 242 242 242 240 238 239 237 234 234 234 236 238 238
307 312 316 317 320 317 319 317 322 321 318 314 314 311 301 292 278 268 259 253 248 248 243 239 241 241 241 243 241 240 239 239 241 242 242 240 238 238 237 236 235 235 235 238 239
307 312 316 317 316 317 321 322 324 321 320 314 311 306 304 293 283 270 260 251 244 241 241 237 238 240 240 240 241 241 239 238 241 242 242 240 239 237 236 237 236 234 235 238 239
310 312 316 318 316 318 323 327 327 328 323 315 307 305 305 299 287 274 263 252 244 238 238 237 237 239 240 239 240 240 239 239 240 244 242 241 239 238 237 237 238 235 235 237 239
311 314 314 316 315 319 320 327 331 328 323 312 305 303 301 301 292 280 267 254 244 238 233 235 238 238 239 238 239 236 238 237 238 243 244 241 239 239 239 237 237 235 236 237 238
310 313 315 316 315 319 322 326 326 325 323 311 305 305 303 301 297 283 271 253 242 238 234 234 235 238 239 238 239 235 237 233 238 242 245 243 238 239 238 236 237 236 234 235 236
310 311 314 316 314 316 322 318 323 323 320 309 303 306 305 302 297 287 272 252 240 235 233 234 234 237 238 241 242 238 235 236 236 239 241 242 237 239 238 238 238 236 234 236 236
309 312 314 312 314 317 318 315 318 322 314 306 307 311 311 302 298 291 275 256 239 233 232 233 235 237 240 241 240 240 236 237 234 238 240 242 238 240 239 236 236 235 234 234 236
309 310 312 311 314 317 313 310 317 317 312 308 308 309 313 309 297 291 281 264 246 235 232 233 234 238 241 244 243 238 235 235 236 234 230 237 236 238 239 236 233 234 232 233 233
307 308 309 311 313 314 312 307 314 314 309 306 306 310 314 315 300 289 283 271 256 243 236 234 236 237 241 244 246 241 237 235 234 234 236 236 235 237 237 237 235 233 233 231 231
305 306 307 309 312 313 312 302 313 311 307 304 305 305 307 305 307 292 279 274 264 254 244 239 238 239 238 241 242 241 238 236 233 233 234 236 235 236 237 235 235 234 233 230 230
302 305 307 309 310 312 312 308 310 307 304 303 301 303 303 303 305 298 286 271 268 260 254 246 242 240 241 240 238 239 239 238 234 237 236 236 235 234 239 234 235 234 232 231 229
302 304 307 310 308 310 309 308 306 303 301 299 299 297 300 300 300 288 287 282 269 262 255 254 249 246 242 241 239 238 238 238 237 236 237 236 233 236 238 238 236 236 232 232 229
303 303 306 305 304 309 307 305 304 299 296 295 292 294 297 299 299 298 286 273 271 269 261 255 252 253 250 245 241 241 241 240 239 238 236 236 235 235 236 239 238 234 234 231 231
303 302 304 306 307 303 301 299 297 294 294 291 290 289 292 293 295 296 293 282 272 268 264 264 256 250 251 251 247 243 241 242 241 241 237 237 236 231 236 238 238 236 233 231 229
302 306 306 304 300 299 300 297 293 292 290 286 286 284 285 288 290 289 291 291 287 275 267 262 262 254 253 248 249 248 245 242 241 241 238 237 238 233 235 236 241 237 232 230 229
302 300 299 298 298 297 296 293 293 292 286 282 281 283 284 284 284 285 287 287 287 284 277 268 262 258 254 251 248 246 248 246 243 241 239 237 236 236 236 236 236 239 234 231 228
300 299 298 297 295 296 294 293 295 293 287 283 283 281 283 283 283 281 281 284 285 283 279 269 263 257 256 254 249 247 245 246 246 243 240 238 235 235 236 235 234 234 238 233 228
298 298 297 295 294 295 294 294 293 292 286 282 277 277 277 276 275 275 274 275 277 278 279 275 270 264 256 255 253 248 246 245 244 243 241 238 236 235 234 234 234 233 234 234 229
297 298 299 295 295 295 294 294 292 288 288 286 281 275 274 273 272 271 272 275 279 280 281 277 271 268 263 255 253 252 247 245 245 241 240 237 236 237 231 232 233 233 232 233 232
300 301 301 300 298 295 296 294 295 294 290 289 287 280 280 276 276 275 279 284 285 282 278 275 270 267 264 259 252 249 249 248 246 242 239 235 232 236 236 230 230 231 231 230 230
300 302 304 302 298 296 296 296 296 295 292 289 288 286 280 279 278 279 285 286 285 282 279 275 270 265 263 261 257 252 250 248 246 242 239 235 228 233 234 235 232 231 231 230 229
299 301 303 301 299 297 295 296 297 296 293 293 289 287 284 281 281 285 287 286 285 282 280 276 272 269 265 263 261 254 252 250 249 245 238 237 228 229 232 232 233 230 230 229 229
298 298 301 301 297 295 296 297 297 296 294 293 292 289 287 283 283 286 286 285 281 280 279 278 275 272 268 261 259 256 253 254 252 248 243 233 231 227 226 231 233 232 231 230 228
296 298 300 298 296 295 296 297 296 296 295 294 292 290 287 286 289 287 286 286 284 280 276 274 273 271 267 263 257 254 254 251 252 248 244 238 232 228 224 225 230 234 230 231 229
293 296 298 297 292 292 294 295 295 296 294 292 291 291 289 290 290 289 286 285 283 281 278 276 273 270 267 266 259 254 253 250 248 249 243 238 234 232 223 223 225 231 230 229 229
Height
10634 10627 10620 10609 10600 10592 10579 10568 10553 10545 10538 10535 10531 10526 10518 10515 10511 10510 10512 10515 10518 10521 10525 10530 10535 10541 10549 10556 10560 10562 10576 10581 10582 10581 10585 10594 10600 10612 10619 10628 10638 10646 10650 10659 10663
10623 10616 10607 10598 10589 10578 10568 10555 10542 10531 10521 10516 10516 10509 10501 10498 10495 10493 10494 10497 10500 10504 10507 10512 10517 10523 10531 10536 10545 10549 10559 10565 10560 10567 10573 10583 10591 10597 10606 10616 10625 10630 10635 10639 10651
10612 10604 10595 10584 10575 10566 10555 10542 10529 10518 10507 10500 10495 10492 10486 10481 10478 10476 10475 10477 10481 10486 10491 10497 10502 10508 10516 10522 10528 10536 10548 10543 10549 10554 10561 10569 10576 10582 10594 10602 10608 10612 10620 10629 10636
10600 10592 10583 10572 10563 10553 10542 10529 10516 10505 10494 10486 10478 10473 10469 10466 10462 10459 10459 10460 10465 10470 10476 10482 10488 10494 10500 10508 10513 10523 10527 10528 10535 10540 10548 10553 10562 10569 10577 10582 10585 10601 10606 10612 10619
10588 10580 10571 10562 10551 10541 10531 10517 10505 10494 10482 10473 10465 10459 10452 10452 10448 10445 10443 10445 10450 10454 10461 10468 10474 10480 10486 10492 10499 10508 10509 10517 10522 10529 10532 10540 10548 10552 10566 10568 10572 10586 10592 10599 10605
10576 10568 10559 10550 10539 10530 10520 10506 10495 10484 10472 10461 10454 10447 10441 10438 10436 10431 10430 10431 10435 10440 10447 10453 10460 10466 10473 10478 10485 10492 10495 10504 10511 10514 10521 10530 10533 10545 10549 10548 10559 10572 10579 10585 10591
10563 10556 10547 10538 10528 10519 10508 10496 10486 10476 10463 10452 10445 10437 10429 10427 10424 10421 10417 10418 10422 10428 10435 10440 10446 10454 10461 10464 10471 10477 10484 10491 10497 10502 10512 10517 10527 10532 10524 10538 10547 10557 10564 10570 10577
10551 10543 10535 10526 10517 10507 10496 10486 10477 10466 10454 10443 10436 10428 10420 10416 10414 10412 10408 10409 10412 10417 10423 10430 10435 10441 10447 10452 10457 10463 10472 10476 10483 10488 10498 10507 10517 10512 10516 10527 10535 10543 10553 10558 10564
10538 10530 10521 10513 10505 10495 10484 10475 10466 10455 10445 10434 10428 10420 10415 10408 10406 10404 10401 10402 10404 10408 10413 10419 10424 10429 10433 10438 10446 10451 10458 10464 10470 10477 10486 10493 10503 10496 10505 10514 10521 10529 10537 10543 10549
10524 10516 10508 10500 10493 10482 10471 10464 10456 10446 10436 10427 10420 10414 10408 10403 10398 10396 10394 10394 10397 10399 10403 10408 10412 10416 10421 10429 10435 10439 10445 10450 10455 10462 10466 10480 10490 10486 10492 10502 10508 10513 10521 10527 10534
10510 10501 10494 10486 10477 10468 10457 10451 10444 10435 10427 10419 10413 10407 10401 10395 10392 10389 10387 10386 10387 10390 10393 10396 10400 10405 10412 10414 10420 10426 10432 10437 10440 10444 10457 10468 10477 10477 10482 10491 10494 10499 10505 10513 10521
10495 10486 10478 10470 10463 10454 10445 10437 10429 10422 10415 10409 10403 10398 10393 10389 10384 10380 10379 10378 10378 10379 10381 10385 10388 10392 10397 10402 10406 10409 10416 10422 10425 10432 10445 10451 10465 10468 10467 10478 10480 10485 10490 10496 10504
10478 10471 10461 10453 10445 10437 10429 10422 10414 10406 10404 10397 10391 10385 10381 10379 10377 10373 10371 10369 10369 10369 10370 10371 10375 10378 10382 10386 10391 10396 10403 10404 10413 10417 10429 10438 10452 10453 10455 10464 10466 10467 10472 10482 10490
10461 10454 10446 10437 10428 10420 10411 10406 10398 10391 10389 10387 10381 10374 10370 10368 10367 10364 10361 10360 10360 10358 10358 10359 10360 10361 10365 10369 10376 10380 10385 10390 10397 10402 10409 10424 10436 10443 10443 10449 10451 10449 10460 10466 10477
10441 10435 10429 10421 10414 10405 10398 10388 10382 10374 10372 10372 10368 10361 10358 10354 10352 10351 10349 10347 10347 10347 10346 10346 10347 10348 10348 10352 10358 10364 10366 10373 10378 10386 10396 10409 10416 10429 10429 10430 10424 10438 10445 10456 10464
10422 10416 10410 10403 10397 10391 10383 10375 10368 10360 10358 10354 10353 10349 10345 10342 10338 10335 10334 10334 10333 10334 10333 10331 10334 10333 10334 10336 10338 10343 10348 10353 10360 10367 10385 10385 10397 10413 10413 10404 10409 10421 10432 10441 10450
10404 10395 10390 10385 10380 10372 10365 10359 10353 10347 10342 10341 10335 10332 10330 10327 10324 10320 10319 10318 10317 10317 10317 10316 10315 10318 10317 10317 10320 10325 10328 10332 10340 10348 10363 10370 10379 10400 10387 10392 10392 10402 10415 10425 10436
10384 10379 10374 10368 10362 10355 10348 10341 10336 10331 10326 10321 10318 10316 10313 10310 10308 10304 10301 10299 10301 10298 10298 10299 10298 10300 10299 10298 10302 10303 10309 10314 10317 10327 10339 10350 10364 10368 10366 10371 10378 10383 10397 10410 10423
10366 10360 10355 10349 10342 10335 10328 10322 10318 10313 10307 10303 10301 10299 10296 10292 10288 10286 10282 10279 10278 10276 10274 10276 10279 10280 10279 10278 10280 10286 10286 10290 10298 10308 10318 10330 10340 10343 10343 10351 10361 10372 10379 10393 10405
10349 10343 10337 10330 10323 10315 10309 10304 10299 10295 10290 10286 10282 10279 10276 10272 10268 10264 10260 10260 10255 10252 10251 10254 10255 10258 10259 10258 10256 10259 10264 10267 10273 10286 10297 10309 10315 10315 10326 10339 10346 10354 10359 10371 10386
10329 10324 10318 10313 10304 10296 10290 10284 10280 10275 10271 10267 10261 10256 10252 10247 10243 10237 10234 10232 10232 10230 10228 10229 10230 10234 10235 10232 10235 10237 10240 10242 10248 10264 10276 10291 10297 10297 10310 10317 10325 10333 10341 10353 10368
10304 10302 10298 10293 10284 10276 10269 10264 10261 10255 10249 10244 10237 10232 10229 10222 10217 10209 10206 10208 10208 10205 10203 10202 10203 10208 10207 10204 10205 10211 10214 10220 10228 10242 10249 10265 10281 10282 10285 10297 10303 10309 10321 10333 10346
10282 10278 10275 10271 10263 10254 10246 10242 10238 10232 10226 10220 10213 10207 10202 10197 10190 10187 10187 10186 10181 10176 10177 10176 10178 10183 10184 10179 10180 10187 10191 10194 10201 10209 10229 10230 10265 10263 10268 10279 10282 10286 10299 10312 10322
10262 10256 10253 10250 10240 10231 10222 10219 10214 10207 10201 10195 10188 10182 10179 10173 10165 10166 10164 10164 10159 10152 10149 10147 10153 10156 10162 10156 10158 10163 10163 10167 10173 10185 10201 10215 10235 10237 10249 10251 10253 10267 10276 10287 10301
10243 10239 10234 10229 10219 10207 10198 10195 10191 10185 10178 10170 10163 10157 10155 10147 10141 10142 10141 10136 10135 10129 10125 10124 10127 10126 10130 10133 10130 10138 10142 10140 10146 10160 10167 10202 10200 10210 10220 10224 10236 10245 10254 10265 10280
10222 10218 10217 10209 10196 10185 10178 10174 10167 10162 10155 10146 10139 10133 10127 10121 10121 10118 10115 10110 10109 10106 10103 10101 10101 10094 10106 10100 10104 10113 10121 10118 10118 10127 10140 10159 10175 10180 10196 10208 10215 10220 10234 10243 10258
10203 10201 10197 10191 10174 10164 10157 10153 10145 10139 10131 10119 10114 10106 10096 10099 10095 10093 10089 10088 10085 10082 10075 10071 10072 10073 10088 10071 10075 10099 10090 10092 10097 10100 10110 10128 10150 10154 10172 10184 10193 10195 10206 10222 10236